STARLINK-2392 (47811 NORAD) Tracking and Keplerian Element Data

This shows tracking and keplerian element data for the satellite.

Feedback or suggestion? Click here.




ElementValue
Catalog47811
NameSTARLINK-2392
Epoch Orbit187
Epoch Day170.58334491
Epoch Year2021
RAAN52.5126
Inclination53.0476
Eccentricity0.0001163
Argument of Perigee81.9344
Mean Anonmoly240.4331
Mean Motion15.33576563
Decay Rate-0.01074346
L11 47811U 21018AA 21170.58334491 -.01074346 00000-0 -35586-1 0 9996
L22 47811 53.0476 52.5126 0001163 81.9344 240.4331 15.33576563 1876

Live tracking and technical data element details for STARLINK-2392 (NORAD 47811). STARLINK-2392 can be tracked NOW for your location showing map with azimuth and elevation plus other details from your city location.

Track the satellite on the map from your city or location and see movement details for azimuth, elevation, latitude, longitude, range, height, and movement on the map or in text.







IsCatalogInMostPopularTable: catalog: 47811, numindb: 39
Update: records affected: 1



GetName: 47811 STARLINK-2392

Hit Count: updated at: Mon, 21 Jun 2021 04:30:44 GMT